Cleburne, TX

8:26 AM CST on February 13, 2016 (GMT -0600)
Cleburne

Weather History for KCPT - February, 2014

Change the Weather History Date:

Sunday, February 2, 2014

  Actual Average (KDFW) Record (KDFW)
Temperature  
Mean Temperature 37 °F 47 °F  
Max Temperature 44 °F 58 °F 83 °F (1995)
Min Temperature 30 °F 37 °F 7 °F (1985)
Degree Days  
Heating Degree Days 28 18  
Month to date heating degree days 36  
Since 1 July heating degree days 1541  
Cooling Degree Days 0 0  
Month to date cooling degree days 0  
Year to date cooling degree days 2  
Moisture  
Dew Point 30 °F    
Average Humidity 88    
Maximum Humidity 100    
Minimum Humidity 61    
Precipitation  
Precipitation 0.04 in 0.08 in 0.51 in (1943)
Month to date precipitation 0.16  
Year to date precipitation 2.29  
Snow  
Snow 0.00 in 0.10 in 1.50 in (1996)
Month to date snowfall 0.1  
Since 1 July snowfall 0.6  
Snow Depth -    
Sea Level Pressure  
Sea Level Pressure 30.15 in    
Wind  
Wind Speed 17 mph (North)    
Max Wind Speed 26 mph    
Max Gust Speed 36 mph    
Visibility 9 miles    
Events Rain    
T = Trace of Precipitation, MM = Missing Value Source: NWS Daily Summary

Daily Weather History Graph

Daily Weather History Graph

Search for Another Location

Airport or City:

Trip Planner

Search our weather history database for the weather conditions in past years. The results will help you decide how hot, cold, wet, or windy it might be!

Date:

Astronomy

Feb. 02, 2014 Rise Set
Actual Time 7:23 AM CST 6:04 PM CST
Civil Twilight 6:57 AM CST 6:29 PM CST
Nautical Twilight 6:28 AM CST 6:59 PM CST
Astronomical Twilight 5:59 AM CST 7:28 PM CST
Moon 9:04 AM CST (2/2) 9:33 PM CST (2/2)
Length of Visible Light 11h 32m
Length of Day
10h 40m
Waxing Crescent, 11% of the Moon is Illuminated
Feb 2
Waxing Crescent
Feb 6
First Quarter
Feb 14
Full
Feb 22
Last Quarter
Mar 1
New

Hourly Weather History & Observations

Time (CST) Temp. Windchill Dew Point Humidity Pressure Visibility Wind Dir Wind Speed Gust Speed Precip Events Conditions
12:15 AM 44.6 °F 36.6 °F 32.0 °F 61% 30.01 in 10.0 mi NNE 19.6 mph - N/A   Overcast
12:35 AM 42.8 °F 35.1 °F 32.0 °F 66% 30.02 in 10.0 mi North 16.1 mph 23.0 mph N/A   Overcast
12:55 AM 41.0 °F 31.9 °F 30.2 °F 65% 30.03 in 10.0 mi NNE 19.6 mph 25.3 mph N/A   Overcast
1:15 AM 39.2 °F 30.2 °F 28.4 °F 65% 30.03 in 10.0 mi NNE 17.3 mph 26.5 mph N/A   Overcast
1:35 AM 39.2 °F 30.2 °F 28.4 °F 65% 30.03 in 10.0 mi North 17.3 mph 24.2 mph N/A   Overcast
1:55 AM 39.2 °F 29.8 °F 28.4 °F 65% 30.03 in 10.0 mi North 18.4 mph 27.6 mph N/A   Overcast
2:15 AM 37.4 °F 28.5 °F 28.4 °F 70% 30.03 in 10.0 mi NNE 15.0 mph 21.9 mph N/A   Overcast
2:35 AM 37.4 °F 26.9 °F 28.4 °F 70% 30.04 in 10.0 mi North 20.7 mph 27.6 mph N/A   Overcast
2:55 AM 37.4 °F 27.8 °F 28.4 °F 70% 30.04 in 10.0 mi NNE 17.3 mph 27.6 mph N/A   Overcast
3:15 AM 37.4 °F 27.5 °F 28.4 °F 70% 30.04 in 10.0 mi NNE 18.4 mph - N/A   Overcast
3:35 AM 37.4 °F 28.9 °F 28.4 °F 70% 30.05 in 10.0 mi North 13.8 mph - N/A   Overcast
3:55 AM 35.6 °F 25.2 °F 28.4 °F 75% 30.05 in 10.0 mi NNE 18.4 mph 26.5 mph N/A   Overcast
4:15 AM 35.6 °F 25.2 °F 28.4 °F 75% 30.06 in 10.0 mi North 18.4 mph 25.3 mph N/A   Overcast
4:35 AM 35.6 °F 25.5 °F 28.4 °F 75% 30.05 in 10.0 mi North 17.3 mph 26.5 mph N/A   Overcast
4:55 AM 35.6 °F 24.8 °F 30.2 °F 81% 30.06 in 10.0 mi North 19.6 mph 28.8 mph N/A   Overcast
5:15 AM 35.6 °F 25.5 °F 30.2 °F 81% 30.06 in 10.0 mi North 17.3 mph 28.8 mph N/A   Overcast
5:35 AM 35.6 °F 26.2 °F 30.2 °F 81% 30.09 in 10.0 mi North 15.0 mph 26.5 mph N/A   Overcast
5:55 AM 33.8 °F 22.8 °F 32.0 °F 93% 30.09 in 8.0 mi North 18.4 mph 31.1 mph N/A Rain Light Rain
6:15 AM 33.8 °F 23.2 °F 32.0 °F 93% 30.08 in 10.0 mi North 17.3 mph 28.8 mph N/A   Overcast
6:35 AM 33.8 °F 23.9 °F 32.0 °F 93% 30.09 in 10.0 mi North 15.0 mph 23.0 mph N/A   Overcast
6:55 AM 33.8 °F 23.2 °F 32.0 °F 93% 30.10 in 7.0 mi North 17.3 mph 23.0 mph N/A Rain Rain
7:15 AM 33.8 °F 23.9 °F 32.0 °F 93% 30.12 in 9.0 mi NNW 15.0 mph 21.9 mph N/A   Overcast
7:35 AM 33.8 °F 24.3 °F 32.0 °F 93% 30.13 in 10.0 mi North 13.8 mph 19.6 mph N/A   Overcast
7:55 AM 33.8 °F 24.3 °F 32.0 °F 93% 30.12 in 10.0 mi North 13.8 mph 25.3 mph N/A   Overcast
8:15 AM 33.8 °F 21.3 °F 32.0 °F 93% 30.11 in 10.0 mi North 24.2 mph 35.7 mph N/A   Overcast
8:35 AM 33.8 °F 23.2 °F 30.2 °F 87% 30.13 in 10.0 mi North 17.3 mph 26.5 mph N/A   Overcast
8:55 AM 33.8 °F 24.3 °F 32.0 °F 93% 30.12 in 10.0 mi North 13.8 mph 26.5 mph N/A   Overcast
9:15 AM 33.8 °F 20.8 °F 30.2 °F 87% 30.12 in 10.0 mi North 26.5 mph 34.5 mph N/A   Overcast
9:35 AM 33.8 °F 22.8 °F 30.2 °F 87% 30.16 in 10.0 mi North 18.4 mph 33.4 mph N/A   Overcast
9:55 AM 33.8 °F 23.2 °F 32.0 °F 93% 30.16 in 10.0 mi North 17.3 mph 27.6 mph N/A Rain Light Rain
10:15 AM 33.8 °F 23.9 °F 32.0 °F 93% 30.18 in 10.0 mi North 15.0 mph 23.0 mph N/A   Overcast
10:55 AM 33.8 °F 21.6 °F 32.0 °F 93% 30.17 in 8.0 mi North 23.0 mph 27.6 mph N/A   Overcast
11:15 AM 33.8 °F 22.5 °F 32.0 °F 93% 30.15 in 8.0 mi NNE 19.6 mph 27.6 mph N/A   Overcast
11:35 AM 33.8 °F 23.5 °F 32.0 °F 93% 30.16 in 9.0 mi NNE 16.1 mph 24.2 mph N/A   Overcast
11:55 AM 33.8 °F 22.8 °F 32.0 °F 93% 30.14 in 10.0 mi North 18.4 mph 26.5 mph N/A   Overcast
12:15 PM 33.8 °F 23.9 °F 32.0 °F 93% 30.16 in 2.0 mi NNW 15.0 mph 25.3 mph 0.02 in Rain Heavy Rain
12:35 PM 33.8 °F 22.8 °F 32.0 °F 93% 30.16 in 3.0 mi North 18.4 mph 27.6 mph 0.03 in Rain Heavy Rain
12:55 PM 33.8 °F 23.5 °F 32.0 °F 93% 30.16 in 5.0 mi North 16.1 mph 23.0 mph 0.03 in Rain Heavy Rain
1:15 PM 33.8 °F 23.9 °F 33.8 °F 100% 30.16 in 3.0 mi North 15.0 mph 27.6 mph N/A Rain Light Rain
1:35 PM 33.8 °F 23.5 °F 33.8 °F 100% 30.15 in 5.0 mi North 16.1 mph 26.5 mph 0.01 in Rain Rain
1:55 PM 33.8 °F 24.3 °F 33.8 °F 100% 30.15 in 5.0 mi NNW 13.8 mph 21.9 mph 0.01 in   Overcast
2:15 PM 33.8 °F 24.3 °F 33.8 °F 100% 30.15 in 2.0 mi NNW 13.8 mph 23.0 mph N/A Rain Rain
2:35 PM 33.8 °F 22.5 °F 33.8 °F 100% 30.12 in 2.5 mi North 19.6 mph 26.5 mph N/A   Overcast
2:55 PM 33.8 °F 24.3 °F 33.8 °F 100% 30.13 in 3.0 mi North 13.8 mph 21.9 mph N/A Rain Rain
3:15 PM 33.8 °F 23.5 °F 33.8 °F 100% 30.13 in 9.0 mi North 16.1 mph 28.8 mph N/A   Overcast
3:35 PM 32.0 °F 20.1 °F 32.0 °F 100% 30.15 in 10.0 mi NNW 19.6 mph 24.2 mph N/A   Overcast
3:55 PM 32.0 °F 20.1 °F 30.2 °F 93% 30.15 in 10.0 mi NNW 19.6 mph 23.0 mph N/A   Overcast
4:15 PM 32.0 °F 21.2 °F 30.2 °F 93% 30.18 in 10.0 mi NNW 16.1 mph 24.2 mph N/A   Overcast
4:35 PM 32.0 °F 21.6 °F 30.2 °F 93% 30.18 in 9.0 mi NNW 15.0 mph 24.2 mph N/A   Overcast
4:55 PM 30.2 °F 18.5 °F 30.2 °F 100% 30.19 in 9.0 mi NNW 17.3 mph 25.3 mph N/A   Overcast
5:15 PM 30.2 °F 18.1 °F 28.4 °F 93% 30.20 in 9.0 mi NNW 18.4 mph 24.2 mph N/A   Overcast
5:35 PM 30.2 °F 19.8 °F 28.4 °F 93% 30.21 in 9.0 mi NNW 13.8 mph 20.7 mph N/A   Overcast
5:55 PM 30.2 °F 20.8 °F 28.4 °F 93% 30.23 in 10.0 mi NNW 11.5 mph 23.0 mph N/A   Overcast
6:15 PM 30.2 °F 19.8 °F 28.4 °F 93% 30.23 in 9.0 mi NNW 13.8 mph 23.0 mph N/A   Overcast
6:35 PM 30.2 °F 18.9 °F 28.4 °F 93% 30.24 in 10.0 mi NNW 16.1 mph 19.6 mph N/A   Overcast
6:55 PM 30.2 °F 20.2 °F 28.4 °F 93% 30.24 in 10.0 mi NNW 12.7 mph 19.6 mph N/A   Overcast
7:15 PM 30.2 °F 20.8 °F 28.4 °F 93% 30.25 in 10.0 mi NNW 11.5 mph - N/A   Overcast
7:35 PM 30.2 °F 20.8 °F 28.4 °F 93% 30.25 in 10.0 mi NNW 11.5 mph 16.1 mph N/A   Overcast
7:55 PM 30.2 °F 19.8 °F 28.4 °F 93% 30.25 in 10.0 mi NNW 13.8 mph - N/A   Overcast
8:15 PM 30.2 °F 20.8 °F 30.2 °F 100% 30.26 in 10.0 mi NNW 11.5 mph - N/A   Overcast
8:35 PM 30.2 °F 19.8 °F 28.4 °F 93% 30.24 in 10.0 mi NNW 13.8 mph 19.6 mph N/A   Overcast
8:55 PM 30.2 °F 20.2 °F 28.4 °F 93% 30.26 in 10.0 mi NNW 12.7 mph - N/A   Overcast
9:15 PM 30.2 °F 20.8 °F 28.4 °F 93% 30.26 in 10.0 mi NNW 11.5 mph - N/A   Overcast
9:35 PM 30.2 °F 21.3 °F 28.4 °F 93% 30.26 in 10.0 mi NNW 10.4 mph - N/A   Overcast
9:55 PM 30.2 °F 21.9 °F 28.4 °F 93% 30.27 in 10.0 mi NNW 9.2 mph - N/A   Overcast
10:15 PM 30.2 °F 21.3 °F 28.4 °F 93% 30.27 in 10.0 mi North 10.4 mph - N/A   Overcast
10:35 PM 30.2 °F 21.3 °F 28.4 °F 93% 30.27 in 10.0 mi NNW 10.4 mph - N/A   Overcast
10:55 PM 30.2 °F 21.9 °F 28.4 °F 93% 30.27 in 10.0 mi NW 9.2 mph - N/A   Overcast
11:15 PM 30.2 °F 21.9 °F 28.4 °F 93% 30.27 in 10.0 mi NNW 9.2 mph - N/A   Overcast
11:35 PM 30.2 °F - 28.4 °F 93% 30.28 in 10.0 mi North - - N/A   Overcast
11:55 PM 30.2 °F - 28.4 °F 93% 30.28 in 10.0 mi North - - N/A   Overcast